Regional Weather Roundup
Issued by NWS

Home | Current Version | Previous Version | Graphics & Text | Print | Product List | Glossary Off
Versions: 1 2 3 4 5 6 7 8 9 10 11 12 13 14 15 16 17 18 19 20 21 22 23 24 25 26 27 28 29 30 31 32 33 34 35 36 37 38 39 40 41 42 43 44 45 46 47 48 49 50

000
ASUS43 KMKX 212011
RWRWI

WISCONSIN REGIONAL WEATHER ROUNDUP
NATIONAL WEATHER SERVICE MILWAUKEE/SULLIVAN WI
300 PM CDT FRI JUL 21 2017

NOTE: "FAIR" INDICATES FEW OR NO CLOUDS BELOW 12,000 FEET WITH NO
SIGNIFICANT WEATHER AND/OR OBSTRUCTIONS TO VISIBILITY.

WIZ001-002-006>008-014>016-023>028-212100-
NORTHWEST WISCONSIN

CITY           SKY/WX    TMP DP  RH WIND       PRES   REMARKS
SUPERIOR ARPT  NOT AVBL
ASHLAND        CLOUDY    82  72  71 VRB6      29.89F HX  87
HAYWARD        CLOUDY    82  65  56 S12       29.89F HX  84
SIREN          PTSUNNY   82  66  58 S10       29.87F HX  84
CUMBERLAND     CLOUDY    73  66  78 S9        29.89F
RICE LAKE      CLOUDY    75  67  76 S10       29.91F
CHETEK         CLOUDY    74  69  82 S3        29.90F
LADYSMITH      CLOUDY    79  67  68 S8        29.93F HX  81
EAU CLAIRE     CLOUDY    75  70  84 SE8       29.89F
MENOMONIE      PTSUNNY   75  70  83 SE8       29.88F
NEW RICHMOND   CLOUDY    75  72  89 S8        29.87F
OSCEOLA        CLOUDY    75  70  84 S9        29.89F
$$

WIZ003>005-009-010-017-018-212100-
NORTH CENTRAL WISCONSIN

CITY           SKY/WX    TMP DP  RH WIND       PRES   REMARKS
MANITOWISH WTR MOSUNNY   81  65  58 S5        29.95F HX  82
ARBOR VITAE    CLOUDY    82  64  54 SW9       29.95F HX  84
WOODRUFF       CLOUDY    82  64  54 SW9       29.95F HX  84
RHINELANDER    CLOUDY    80  65  59 SW8       29.97F HX  82
EAGLE RIVER    CLOUDY    80  56  44 SW6       29.96F HX  80
LAND O LAKES   PTSUNNY   83  59  45 S5        29.98F HX  83
PHILLIPS       CLOUDY    79  65  62 S6        29.93F HX  81
TOMAHAWK         N/A     78  64  62 CALM      29.96F HAZE    HX  80
MEDFORD        CLOUDY    75  67  76 S8        29.94F
MERRILL        PTSUNNY   80  66  63 S5        29.96F HX  82
$$

WIZ029-030-035-036-043>047-212100-
CENTRAL WISCONSIN

CITY           SKY/WX    TMP DP  RH WIND       PRES   REMARKS
WAUSAU         CLOUDY    79  66  64 S7        29.94F HX  81
MOSINEE        CLOUDY    77  70  78 S9        29.98F
MARSHFIELD     LGT RAIN  74  68  81 S8        29.94F
STEVENS POINT  DRIZZLE   75  69  81 S9        29.97F
WAUPACA        LGT RAIN  79  74  84 S6        29.96F HX  82
WAUTOMA        LGT RAIN  76  71  85 CALM      29.96F
WISC RAPIDS    LGT RAIN  75  70  84 SW6       29.96F
CAMP DOUGLAS   LGT RAIN  73  72  94 SE6       29.95F
$$

WIZ011>013-019>022-031-037>040-048>050-212100-
NORTHEAST WISCONSIN

CITY           SKY/WX    TMP DP  RH WIND       PRES   REMARKS
ANTIGO         MOSUNNY   79  64  60 SW7       29.98F HX  80
SHAWANO        CLOUDY    82  67  59 SW7       29.95S HX  85
OCONTO         CLOUDY    83  67  59 SW5       29.94S HX  85
STURGEON BAY     N/A     83  68  60 SW6       29.95F HX  86
GREEN BAY      CLOUDY    78  70  76 SW5       29.96R HX  80
MANITOWOC      CLOUDY    79  68  69 S6        29.98R HX  81
APPLETON       CLOUDY    77  66  69 SW7       29.97R
CLINTONVILLE   CLOUDY    79  66  65 SW6       29.96S HX  81
OSHKOSH        CLOUDY    78  70  76 SW6       29.97S HX  80
$$

WIZ032>034-041-042-053>061-212100-
SOUTHWEST WISCONSIN

CITY           SKY/WX    TMP DP  RH WIND       PRES   REMARKS
LA CROSSE      LGT RAIN  74  71  91 SE6       29.91F
SPARTA         LGT RAIN  69  68  94 SE5       29.96F
VIROQUA        CLOUDY    71  71 100 SE5       29.95S
BOSCOBEL       LGT RAIN  74  71  91 VRB3      29.92S
PRAIRIE DU CHI LGT RAIN  71  69  95 NW6       29.94R
PLATTEVILLE    CLOUDY    73  73 100 SE8       29.92F
$$

WIZ056-057-062-063-064-067-068-212100-
SOUTH CENTRAL WISCONSIN

CITY           SKY/WX    TMP DP  RH WIND       PRES   REMARKS
REEDSBURG      DRIZZLE   73  73 100 CALM      29.92F
BARABOO/DELLS  DRIZZLE   73  70  92 E3        29.93F
LONE ROCK      LGT RAIN  74  71  91 E5        29.91F
MINERAL POINT  LGT RAIN  73  73 100 SE6       29.93F
MADISON        LGT RAIN  75  73  93 E9        29.92F FOG
MIDDLETON      CLOUDY    75  75 100 E7        29.93F
WATERTOWN      RAIN      77  76  96 CALM      29.98S
MONROE         DRIZZLE   72  70  94 S9        29.95F
JANESVILLE     TSTM      81  73  78 NW6       29.97R HX  85
$$

WIZ051-052-058>065-066-070>072-212100-
SOUTHEAST WISCONSIN

CITY           SKY/WX    TMP DP  RH WIND       PRES   REMARKS
MILWAUKEE      CLOUDY    81  71  71 SE9       29.96F HX  85
WAUKESHA       MOSUNNY   79  70  73 S3        29.99S HX  81
MILWAUKEE/TIMM PTSUNNY   81  66  61 CALM      29.97F HX  83
RACINE         CLOUDY    80  71  74 E10       29.97F HX  84
KENOSHA        PTSUNNY   84  69  60 E7        29.96F HX  88
FOND DU LAC    LGT RAIN  78  71  79 S3        29.98S HX  80
SHEBOYGAN      CLOUDY    80  70  71 SW6       29.98R HX  83
WEST BEND      LGT RAIN  77  70  78 W3        29.98F
JUNEAU         RAIN      74  71  92 CALM      30.00F
$$

LSZ147-162-212100-
LAKE SUPERIOR

STATION/POSITION TIME  TEMP    WIND        PRES    WAVE
                       AIR SEA DIR/SP/G            HT/PER
                 (UTC) (F)     (DEG/KT/KT) (MB)    (FT/S)
W MID LAKE BUOY  1850   55 49   40/  8/  8 1013.5F   0
DEVILS ISLAND    2000   63      70/ 12/ 13 1012.7F
PORT WING        1900   64      30/ 14/ 17 1012.9
SAXON HARBOR     1940   68     340/  3/  4 1012.5F
$$

LMZ867-665-643>646-212100-
LAKE MICHIGAN

STATION/POSITION TIME  TEMP    WIND        PRES    WAVE
                       AIR SEA DIR/SP/G            HT/PER
                 (UTC) (F)     (DEG/KT/KT) (MB)    (FT/S)
CHAMBERS ISLAND  1940   84     200/  6/  9 1013.5S
S GREEN BAY BUOY 2000   77 76   70/  2/  2 1014.0
N MID LAKE BUOY  1950   69 69  160/  6/  6 1014.7F   1
NORTHPORT PIER   1940   73     140/  7/  9 1013.9S
KEWAUNEE LAKESHO 1948   72     170/  8/ 10 1013.8R
SHEBOYGAN LAKESH 2000   76     190/  7/  7 1014.3R
PORT WASHINGTON  1930   76     180/  7/  9 1015.9R
ATWATER BUOY     1909   72 69  190/  8/ 10 1015.5R
MILWAUKEE LAKESH 1950   71     130/ 10/ 11   N/A
S MID LAKE BUOY  1950   73 72  190/  4/  6 1014.9R   0
KENOSHA   LAKESH 2000   78     110/  3/  7 1014.2
$$

TC  - TEMPERATURE IN CELSIUS
VSB - VISIBILITY IN STATUTE MILES
WCI - WIND CHILL INDEX
HX  - HEAT INDEX





USA.gov is the U.S. government's official web portal to all federal, state and local government web resources and services.